Location: Spring Creek
(38.2870°N, 100.2160°W)
Time: 19:17:56
(UTC+00:00)

X-37B - Visible Passes

Search period start: 07 December 2023 00:00
Search period end: 17 December 2023 00:00
Orbit: 277 x 277 km, 45.0° (Epoch: 01 November)

Date Brightness Start Highest point End Pass type
(mag) Time Alt. Az. Time Alt. Az. Time Alt. Az.
07 Dec 2.0 00:37:25 10° NW 00:38:56 18° N 00:38:56 18° N visible
08 Dec 1.6 00:38:02 10° NW 00:39:43 22° N 00:39:43 22° N visible
09 Dec 1.0 00:38:36 10° NW 00:40:36 32° N 00:40:36 32° N visible
10 Dec -0.1 00:39:13 10° WNW 00:41:38 57° NNE 00:41:38 57° NNE visible
11 Dec 0.1 00:39:53 10° WNW 00:42:20 69° SSW 00:42:53 46° SE visible
12 Dec 1.7 00:40:42 10° W 00:42:57 32° SSW 00:44:25 17° SSE visible
13 Dec 3.0 00:41:52 10° W 00:43:31 16° SW 00:45:10 10° S visible
